Location: Владивосток
(43.1151°N, 131.8856°E)
Time: 08:14:02
(UTC+10:00)

SPROUT - Pass Details

Date: 11 July 2022
Orbit: 588 x 598 km, 97.9° (Epoch: 18 August)

Event Time Altitude Azimuth Distance (km) Brightness Sun altitude
Exits shadow 00:37:59 11° 81° (E) 1,887 ? -24.1°
Maximum altitude 00:39:22 12° 61° (ENE) 1,791 ? -24.1°
Drops below altitude 10° 00:40:58 10° 38° (NE) 1,927 ? -24.2°
Sets 00:44:24 0° 8° (N) 2,837 ? -24.2°
